User: anonymous
Location: Rancho Del Sol Observatory
(38.7214°N, 120.6350°W)
Time: 03:16:48
(UTC-07:00)
Language:

Cosmos 2221 Rocket - Orbit

View from above orbital plane
View from above orbital plane
View from above satellite
View from above satellite

Ground track
Ground track

The orbit data is extracted from the following two-line orbital elements,

1 22237U 92080B   14274.15152970  .00000421  00000-0  55150-4 0  4568
2 22237 082.5117 318.5055 0019831 197.8151 214.7258 14.77910392177189
Epoch (UTC): 01 October 2014 03:38:12
Eccentricity: 0.0019831
inclination: 82.5117°
perigee height: 622 km
apogee height: 650 km
right ascension of ascending node: 318.5055°
argument of perigee: 197.8151°
revolutions per day: 14.77910392
mean anomaly at epoch: 214.7258°
orbit number at epoch: 17718

The dashed part of the orbit path shows where the satellite is in the earth's shadow,  

DLR